DELTA 1 DEB, 10706

Orbit data source: Space-Track

DELTA 1 DEB, 10706 is space debris in SSO originally from a launch on Thu, 29 Jul 1976 UTC launched from the Air Force Western Test Range (AFWTR). Debris objects in space refer to the collection of defunct objects orbiting the Earth. Examples of debris include non-operational satellites, rocket bodies, and fragments generated from explosions, collisions, or faulty payload assembly.

Loading next visibility...
Identifier
10706, 1976-077AB
Orbit
SSO
Last TLE update
5 hours ago
Origin
Manufacturer
Unknown
Mission
Spacecraft
Bus & Motor
Unknown
Mass
Unknown
Launch date (UTC)
1976-07-29 (49 years ago)
Launch vehicle
Unknown
Launch site
Air Force Western Test Range (AFWTR)
Object type
Payload
Rocket body
Debris
Shape & HBR
Unknown
Radar Cross Section
Small (<0.1 m²)

Expand to show TLE details & history

TLE from 5 hours ago
0 DELTA 1 DEB
1 10706U 76077AB  25182.14949219  .00000368  00000-0  12715-2 0  9993
2 10706 101.5599  29.2853 0387119 147.5214 339.2640 12.82859403274707
Epoch: 2025-07-01T03:35Z
TLE epoch observation values (Epoch: 2025-07-01T03:35:16.125Z)
Latitude
53.34069°
Longitude
-108.1146°
Altitude
1,060.943 km
Speed
7.457 km/s
True Right ascension
15h 00m 36s
True Declination
53° 10' 57"
Sunlit
Object was in daylight at epoch
Visualization orbit readout
Latitude
4.69609°
Longitude
55.27548°
Altitude
1,563.548 km
Speed
6.979 km/s
Apparent Right ascension
04h 06m 16s
Apparent Declination
-20° 55' 15"
Sunlit
Object is in daylight
Visualization observer readout
Local Sidereal Time
20:13:08
Azimuth
89.296° E
Elevation
-34.65°
Doppler factor
1
Orbital elements
Apogee altitude
1,625.781 km
Perigee altitude
1,029.183 km
Semi-major axis
7,705.619 km
Eccentricity
0.03871
Inclination
101.5599°
RAAN
29.2853°
Arg. of periapsis
147.5214°
True anomaly
Unknown
Mean anomaly
339.264°
Eccentric anomaly
Unknown
Mean motion
3.20872 °/min
Orbital period
112.19 mins
BSTAR
0.0012715
Loading maneuver chart data...
Loading SW <> Apogee altitude chart data...
Loading historical data...
Loading historical data...
Loading historical data...
Loading historical data...
Loading historical data...
Loading historical data...
Loading historical data...

DELTA 1 DEB Visibility forecast

Observer location: undefined°, undefined°

Span
Click to sort rows by Start time (UTC) header in descending order
Start Az.
Max El. time (UTC)
Max El. Az.
Max El.
End time (UTC)
End Az.
13 mins2025-07-01 12:26:00.287Z122.325° SE2025-07-01 12:33:00.287Z60.13° ENE30.703°2025-07-01 12:39:00.287Z1.758° NNE
14 mins2025-07-01 14:16:00.287Z186.307° SSW2025-07-01 14:23:00.287Z259.622° W37.869°2025-07-01 14:30:00.287Z331.097° NNW
10 mins2025-07-02 02:03:00.287Z40.156° NE2025-07-02 02:08:00.287Z109.436° ESE30.435°2025-07-02 02:13:00.287Z164.778° S
9 mins2025-07-02 03:54:00.287Z350.193° N2025-07-02 03:58:00.287Z295.424° NW29.101°2025-07-02 04:03:00.287Z237.721° WSW
|